EW3309 Weather Reports


Display with metric or nautical units.
time (UTC)temp
F
wind
direction
speed
MPH
gust
MPH
rain 1hr
in
rain 24hr
in
rain mn
in
humidity
%
barometer
mb
20260508091605 61 262 0.0 0.0 0.00 0.00 0.00 87 1014.3
20260508090114 61 262 0.0 0.0 0.00 0.00 0.00 87 1014.4
20260508084557 61 319 0.0 0.0 0.00 0.00 0.00 87 1014.5
20260508083054 61 323 0.0 0.0 0.00 0.00 0.00 87 1014.6
20260508081604 61 303 0.0 0.0 0.00 0.00 0.00 87 1014.7
20260508080052 61 303 0.0 0.0 0.00 0.00 0.00 87 1014.9
20260508074551 61 304 0.0 0.0 0.00 0.00 0.00 87 1015.0
20260508073105 61 304 0.0 0.0 0.00 0.00 0.00 87 1015.0
20260508071548 61 304 0.0 0.0 0.00 0.00 0.00 87 1015.2
20260508070048 61 304 0.0 0.0 0.00 0.00 0.00 87 1015.2
20260508064549 61 304 0.0 0.0 0.00 0.00 0.00 87 1015.3
20260508063050 61 304 0.0 0.0 0.00 0.00 0.00 87 1015.3
20260508061546 61 304 0.0 0.0 0.00 0.00 0.00 87 1015.4
20260508060100 61 304 0.0 0.0 0.00 0.00 0.00 86 1015.3
20260508054543 61 304 0.0 0.0 0.00 0.00 0.00 86 1015.3
20260508053042 61 304 0.0 0.0 0.00 0.00 0.00 85 1015.3
20260508051559 61 304 0.0 0.0 0.00 0.00 0.00 85 1015.2
20260508050042 61 304 0.0 0.0 0.00 0.00 0.00 84 1015.2
20260508044547 61 287 0.0 0.0 0.00 0.00 0.00 83 1015.0
20260508043040 61 287 0.0 0.0 0.00 0.00 0.00 82 1014.9
20260508041540 62 286 0.0 0.0 0.00 0.00 0.00 82 1014.6
20260508040049 63 286 0.0 0.0 0.00 0.00 0.00 80 1014.4
20260508034547 63 284 0.0 0.0 0.00 0.00 0.00 79 1014.2
20260508033044 64 267 0.0 0.0 0.00 0.00 0.00 77 1014.1
20260508031541 65 283 0.0 0.0 0.00 0.00 0.00 75 1013.9
20260508030037 66 295 0.0 0.0 0.00 0.00 0.00 73 1013.5
20260508024600 68 274 0.0 0.0 0.00 0.00 0.00 71 1013.3
20260508023038 69 261 0.0 0.0 0.00 0.00 0.00 68 1013.0
20260508021538 71 227 0.0 0.0 0.00 0.00 0.00 65 1012.8
20260508020043 73 290 0.0 0.0 0.00 0.00 0.00 63 1012.7
20260508014538 73 252 0.0 0.0 0.00 0.00 0.00 62 1012.6
20260508013035 74 286 0.0 0.0 0.00 0.00 0.00 62 1012.8
20260508011533 74 281 0.0 0.0 0.00 0.00 0.00 61 1012.8
20260508010037 74 256 0.0 0.0 0.00 0.00 0.00 61 1012.8
20260508004542 75 318 0.0 0.0 0.00 0.00 0.00 60 1012.8
20260508003028 75 257 0.0 0.0 0.00 0.00 0.00 59 1012.8
20260508001536 76 296 0.0 0.0 0.00 0.00 0.00 59 1012.8
20260508000025 76 306 0.0 0.0 0.00 0.00 0.00 58 1012.7
20260507234526 76 290 0.0 0.0 0.00 0.00 0.00 58 1012.8
20260507233022 76 268 0.0 0.0 0.00 0.00 0.00 58 1012.7
20260507231522 76 295 0.0 0.0 0.00 0.00 0.00 58 1012.6
20260507230019 76 265 0.0 0.0 0.00 0.00 0.00 58 1012.7
20260507224519 76 221 0.0 0.0 0.00 0.00 0.00 57 1012.8
20260507223016 76 273 0.0 0.0 0.00 0.00 0.00 57 1012.8
20260507221514 77 286 0.0 0.0 0.00 0.00 0.00 57 1012.9
20260507220013 77 275 0.0 0.0 0.00 0.00 0.00 57 1013.0
20260507214509 77 288 0.0 0.0 0.00 0.00 0.00 57 1013.2
20260507213006 76 303 0.0 0.0 0.00 0.00 0.00 57 1013.3
20260507211505 77 260 0.0 0.0 0.00 0.00 0.00 57 1013.4
20260507210003 76 276 0.0 0.0 0.00 0.00 0.00 58 1013.5
20260507204502 77 277 0.0 0.0 0.00 0.00 0.00 57 1013.6
20260507203135 77 263 0.0 0.0 0.00 0.00 0.00 56 1013.6
20260507201559 78 256 0.0 0.0 0.00 0.00 0.00 56 1013.5
20260507200100 78 251 0.0 0.0 0.00 0.00 0.00 56 1013.6
20260507194613 79 221 0.0 0.0 0.00 0.00 0.00 55 1013.6
20260507193049 78 179 0.0 0.0 0.00 0.00 0.00 56 1013.7
20260507191548 77 302 0.0 0.0 0.00 0.00 0.00 55 1013.9
20260507190051 76 244 0.0 0.0 0.00 0.00 0.00 56 1014.1
20260507184538 75 341 0.0 0.0 0.00 0.00 0.00 59 1014.2
20260507183034 74 270 0.0 0.0 0.00 0.00 0.00 61 1014.4
20260507181529 73 256 0.0 0.0 0.00 0.00 0.00 63 1014.5
20260507180026 71 252 0.0 0.0 0.00 0.00 0.00 67 1014.7
20260507174531 70 323 0.0 0.0 0.00 0.00 0.00 71 1014.8
20260507173043 68 199 0.0 0.0 0.00 0.00 0.00 74 1014.9
20260507171521 66 177 0.0 0.0 0.00 0.00 0.00 80 1015.0
20260507170008 64 198 0.0 0.0 0.00 0.00 0.00 85 1015.2
20260507164504 62 258 0.0 0.0 0.00 0.00 0.00 89 1015.4
20260507163100 61 259 0.0 0.0 0.00 0.00 0.00 92 1015.5
20260507161609 60 301 0.0 0.0 0.00 0.00 0.00 94 1015.6
20260507160100 58 298 0.0 0.0 0.00 0.00 0.00 94 1015.6
20260507154549 58 291 0.0 0.0 0.00 0.00 0.00 94 1015.8
20260507153050 57 289 0.0 0.0 0.00 0.00 0.00 94 1015.6
20260507151543 56 288 0.0 0.0 0.00 0.00 0.00 94 1015.6
20260507150043 56 288 0.0 0.0 0.00 0.00 0.00 94 1015.6
20260507144539 54 293 0.0 0.0 0.00 0.00 0.00 94 1015.7
20260507143048 53 293 0.0 0.0 0.00 0.00 0.00 94 1015.5
20260507141546 53 285 0.0 0.0 0.00 0.00 0.00 94 1015.5
20260507140032 53 290 0.0 0.0 0.00 0.00 0.00 93 1015.3
20260507134528 52 343 0.0 0.0 0.00 0.00 0.00 93 1015.3
20260507133040 52 343 0.0 0.0 0.00 0.00 0.00 93 1015.2
20260507131527 52 343 0.0 0.0 0.00 0.00 0.00 93 1015.2
20260507130022 52 342 0.0 0.0 0.00 0.00 0.00 92 1015.1
20260507124526 52 342 0.0 0.0 0.00 0.00 0.00 92 1014.9
20260507123028 52 342 0.0 0.0 0.00 0.00 0.00 92 1014.9
20260507121519 52 342 0.0 0.0 0.00 0.00 0.00 92 1014.9
20260507120018 53 342 0.0 0.0 0.00 0.00 0.00 92 1014.9
20260507114517 53 342 0.0 0.0 0.00 0.00 0.00 92 1014.8
20260507113016 52 342 0.0 0.0 0.00 0.00 0.00 91 1014.8
20260507111514 53 342 0.0 0.0 0.00 0.00 0.00 91 1014.8
20260507104546 53 342 0.0 0.0 0.00 0.00 0.00 91 1015.0
20260507103048 53 342 0.0 0.0 0.00 0.00 0.00 91 1015.0
20260507101545 53 342 0.0 0.0 0.00 0.00 0.00 90 1015.2
20260507100039 53 337 0.0 0.0 0.00 0.00 0.00 90 1015.2
20260507094552 53 334 0.0 0.0 0.00 0.00 0.00 90 1015.2
20260507093033 54 334 0.0 0.0 0.00 0.00 0.00 90 1015.3